{"data":{"norad_id":39617,"intl_designator":"2014-011B","name":"ASTRA 5B (EGNOS/PRN 123)","alt_names":[],"object_type":"PAYLOAD","status":"ACTIVE","operator":null,"country":"SES","launch_date":"2014-03-22","launch_site_code":"FRGUI","launch_vehicle":null,"mission":null,"orbit_class":"UNKNOWN","rcs_meters":21.6238,"size_class":null,"mass_kg":null,"dimensions":null,"purposes":["comms","nav"],"wikipedia_slug":null,"has_3d_model":false,"image_url":null,"decayed_at":null,"tle_current":{"epoch":"2026-05-25T03:51:16.622784Z","epoch_age_seconds":71243,"freshness":"FRESH","line1":"1 39617U 14011B   26145.16060906  .00000135  00000+0  00000+0 0  9996","line2":"2 39617   0.0546 319.7795 0002546  72.2965 291.9764  1.00270668 44435","mean_motion":1.00270668,"eccentricity":0.0002546,"inclination_deg":0.0546,"raan_deg":319.7795,"arg_perigee_deg":72.2965,"mean_anomaly_deg":291.9764,"bstar":0,"rev_number":4443,"period_min":1436.1129019306,"perigee_km":35776.172879263,"apogee_km":35797.643320228,"semimajor_km":42165.045099746,"source":"CELESTRAK","updated_at":"2026-05-25T13:38:24.340157Z"}}}